This demonstration page uses our WeatherBlox Daily Observations layout. Learn more.

Left ArrowRight Arrow

41.12389, -100.76542

Hourly Observations for March 31, 2018

Temp ( °F °C ) Dew Point ( °F °C ) Humidity (%) Winds ( mph kmh ) Pressure ( in mb ) Visibility ( mi km ) Precip ( " mm )
12:53 am 00:53 Clear 51 10.6 34 1.1 52 52 SW 8 13 29.77 1008 10 16 0.00 0.00
1:53 am 01:53 Clear 52 11.1 31 -0.6 45 45 NW 28 44 29.83 1010 10 16 0.00 0.00
2:01 am 02:01 Clear 50 10 34 1.1 54 54 NNW 31 50 29.85 1011 10 16 0.00 0.00
2:53 am 02:53 Clear 45 7.2 35 1.7 68 68 NNW 8 13 29.89 1012 10 16 0.00 0.00
3:53 am 03:53 Clear 42 5.6 33 0.6 71 71 NNW 13 20 29.93 1014 10 16 0.00 0.00
4:53 am 04:53 Clear 41 5 33 0.6 73 73 NNW 14 22 29.97 1015 10 16 0.00 0.00
5:53 am 05:53 Mostly Cloudy 39 3.9 32 0 76 76 NNW 12 19 30.03 1017 10 16 0.00 0.00
6:00 am 06:00 Partly Cloudy 40 4.4 32 0 73 73 N 20 31 30.12 1020 10 16 0.00 0.00
6:53 am 06:53 Partly Cloudy 35 1.7 27 -2.8 72 72 NNW 22 35 30.09 1019 10 16 0.00 0.00
7:04 am 07:04 Mostly Cloudy 34 1.1 26 -3.3 73 73 N 20 31 30.18 1022 10 16 0.00 0.00
7:53 am 07:53 Cloudy 32 0 23 -5 69 69 N 21 33 30.14 1021 10 16 0.00 0.00
8:53 am 08:53 Cloudy 29 -1.7 21 -6.1 72 72 N 21 33 30.21 1023 10 16 0.00 0.00
9:53 am 09:53 Cloudy 28 -2.2 19 -7.2 69 69 N 21 33 30.23 1024 10 16 0.00 0.00
10:53 am 10:53 Cloudy 27 -2.8 18 -7.8 69 69 N 20 31 30.27 1025 10 16 0.00 0.00
11:53 am 11:53 Cloudy 28 -2.2 16 -8.9 60 60 N 17 28 30.32 1027 10 16 0.00 0.00
12:53 pm 12:53 Cloudy 29 -1.7 15 -9.4 56 56 N 18 30 30.33 1027 10 16 0.00 0.00
1:03 pm 13:03 Cloudy 30 -1.1 15 -9.4 54 54 N 18 30 30.42 1030 10 16 0.00 0.00
1:53 pm 13:53 Cloudy 30 -1.1 14 -10 51 51 N 17 28 30.32 1027 10 16 0.00 0.00
2:53 pm 14:53 Cloudy 31 -0.6 13 -10.6 47 47 NNE 15 24 30.33 1027 10 16 0.00 0.00
3:53 pm 15:53 Cloudy 32 0 13 -10.6 45 45 N 15 24 30.32 1027 10 16 0.00 0.00
4:53 pm 16:53 Cloudy 33 0.6 13 -10.6 43 43 NE 12 19 30.31 1026 10 16 0.00 0.00
5:53 pm 17:53 Cloudy 33 0.6 13 -10.6 43 43 N 12 19 30.30 1026 10 16 0.00 0.00
6:53 pm 18:53 Cloudy 33 0.6 13 -10.6 43 43 NE 14 22 30.31 1026 10 16 0.00 0.00
7:53 pm 19:53 Cloudy 31 -0.6 12 -11.1 45 45 NNE 10 17 30.33 1027 10 16 0.00 0.00
8:53 pm 20:53 Cloudy 30 -1.1 11 -11.7 45 45 NNE 12 19 30.35 1028 10 16 0.00 0.00
9:53 pm 21:53 Cloudy 28 -2.2 13 -10.6 53 53 NNE 8 13 30.40 1029 10 16 0.00 0.00
10:24 pm 22:24 Cloudy with Light Snow 26 -3.3 16 -8.9 66 66 N 5 7 30.48 1032 3 4 0.00 0.03
10:37 pm 22:37 Cloudy with Light Snow 25 -3.9 18 -7.8 75 75 N 6 9 30.48 1032 1 2 0.01 0.25
10:53 pm 22:53 Cloudy with Light Snow 24 -4.4 19 -7.2 81 81 N 6 9 30.44 1031 1 2 0.02 0.51
10:59 pm 22:59 Mostly Cloudy with Light Snow 24 -4.4 19 -7.2 81 81 NNE 6 9 30.48 1032 1 1 0.00 0.03
11:28 pm 23:28 Cloudy with Light Snow 24 -4.4 20 -6.7 84 84 NNE 5 7 30.48 1032 1 2 0.02 0.51
11:53 pm 23:53 Mostly Cloudy with Light Snow 24 -4.4 20 -6.7 84 84 NE 5 7 30.43 1031 1 2 0.04 1.02

Powered by AerisWeather